Regional Weather Roundup
Issued by NWS

Home | Current Version | Previous Version | Text Only | Print | Product List | Glossary Off
Versions: 1 2 3 4 5 6 7 8 9 10 11 12 13 14 15 16 17 18 19 20 21 22 23 24 25 26 27 28 29 30 31 32 33 34 35 36 37 38 39 40 41 42 43 44 45 46 47 48 49 50

000
ASUS45 KBOU 221007
RWRCO

WEATHER ROUNDUP FOR COLORADO
NATIONAL WEATHER SERVICE DENVER/BOULDER CO
400 AM MDT FRI AUG 22 2014

NOTE: "FAIR" INDICATES FEW OR NO CLOUDS BELOW 12000 FEET WITH NO
SIGNIFICANT WEATHER AND/OR OBSTRUCTIONS TO VISIBILITY.

COZ001>005-013-030-031-221100-
...NORTHWEST COLORADO...

CITY           SKY/WX    TMP DP  RH WIND       PRES   REMARKS
CRAIG          CLOUDY    54  49  83 CALM      30.21S
HAYDEN         CLOUDY    55  45  67 E7        30.21F
MEEKER         CLOUDY    53  47  79 CALM      30.21S
MOUNT WERNER   NOT AVBL
STEAMBOAT SPGS CLOUDY    51  47  84 CALM      30.24S
WALDEN         CLOUDY    48  43  81 CALM      30.31S
$$

COZ006>008-011-221100-
...WEST CENTRAL VALLEYS...

CITY           SKY/WX    TMP DP  RH WIND       PRES   REMARKS
GRAND JUNCTION CLOUDY    68  48  48 E9        30.08S
MONTROSE       LGT RAIN  60  53  77 SE8       30.23R
EAGLE          CLOUDY    57  48  72 NE3       30.25R
RIFLE          LGT RAIN  62  49  62 CALM      30.16R
DELTA          LGT RAIN  65  55  68 E8        30.18R
NUCLA          CLOUDY    57  52  82 E14       30.25S
$$

COZ017>023-064>068-221100-
...SOUTHWEST COLORADO...

CITY           SKY/WX    TMP DP  RH WIND       PRES   REMARKS
DURANGO        CLOUDY    63  44  50 NW18G29   30.23R
CORTEZ         CLOUDY    58  52  80 E16       30.23F
PAGOSA SPRINGS MOCLDY    54  40  60 CALM      30.28R
TELLURIDE      LGT RAIN  48  48 100 E5        30.41R
WOLF CREEK PAS NOT AVBL
$$

COZ009-010-012-014-032>034-037-058>063-221100-
...CENTRAL COLORADO...

CITY           SKY/WX    TMP DP  RH WIND       PRES   REMARKS
ASPEN          LGT RAIN  56  44  64 VRB5G20   30.30R
BUENA VISTA    MOCLDY    58  40  50 NW9       30.28S
COPPER MTN     CLOUDY    46  36  66 S15       30.56S
BERTHOUD PASS  CLOUDY    39  37  93 N7        30.60S
COTTONWOOD PAS MOCLDY    57  34  41 NW6       30.41S
GUNNISON       CLOUDY    54  43  66 SE5       30.32R
KREMMLING      CLOUDY    54  46  76 CALM      30.29R
LEADVILLE      CLOUDY    46  41  82 NE5       30.40F
MONARCH PASS   CLOUDY    43  34  70 SW13      30.64S
SALIDA         MOCLDY    62  41  46 CALM      30.33R
SUNLIGHT       LGT RAIN  48  41  76 CALM      30.49S
WILKERSON PASS NOT AVBL
$$

COZ069>075-221100-
...SAN LUIS VALLEY/SANGRE DE CRISTO MOUNTAINS...

CITY           SKY/WX    TMP DP  RH WIND       PRES   REMARKS
ALAMOSA        CLOUDY    53  41  63 CALM      30.24S
LA VETA PASS   NOT AVBL
SAGUACHE       CLOUDY    59  37  44 NW13      30.27S
$$

COZ035-036-038>040-221100-
...NORTHERN COLORADO FRONT RANGE...

CITY           SKY/WX    TMP DP  RH WIND       PRES   REMARKS
DENVER INTL AP MOCLDY    61  56  83 SE8       30.15R
DMNS CITY PARK   N/A     64  56  76 S1G7      30.14S
AURORA         MOCLDY    60  55  84 S5        30.17S
FRONT RANGE AP NOT AVBL
ERIE MUNI ARPT HVY RAIN  64  58  82 CALM      30.14R
BOULDER MUN AP CLOUDY    63  52  67 CALM      30.14S
CENTENNIAL     CLOUDY    60  55  83 S6        30.17F
BROOMFIELD     LGT RAIN  61  55  82 CALM      30.16S
FORT COLLINS   CLOUDY    63  57  82 NW5       30.13F
LONGMONT       CLOUDY    63  56  79 NW3       30.15R
$$

COZ041-046-047-076>085-087-088-221100-
...PIKES PEAK/PALMER DIVIDE AND SOUTHERN FOOTHILLS...

CITY           SKY/WX    TMP DP  RH WIND       PRES   REMARKS
COLO. SPRINGS  MOCLDY    63  49  60 NW14      30.18S
A. F. ACADEMY  PTCLDY    58  49  72 N9        30.20F
ELLICOTT       MOCLDY    60  53  77 N14       30.16R
FALCON         CLOUDY    58  51  78 N12       30.22S
FORT CARSON    NOT AVBL
LIMON          CLOUDY    59  56  89 N15       30.14F
MONUMENT HILL  PTCLDY    52  50  93 CALM      30.23F
TRINIDAD       MOCLDY    62  47  57 NW9       30.10R
$$

COZ042>045-048>051-090-091-221100-
...NORTHEAST COLORADO...

CITY           SKY/WX    TMP DP  RH WIND       PRES   REMARKS
GREELEY ARPT   CLOUDY    63  54  72 NE5       30.12S
AKRON          LGT RAIN  62  58  86 W14       30.12R
BURLINGTON     MOCLDY    66  55  67 CALM      30.04R
WRAY             N/A     67  58  72 CALM      30.04R
STERLING       CLOUDY    68  63  83 CALM      30.07S
HOLYOKE        NOT AVBL
FORT MORGAN    CLOUDY    62  60  91 S9        30.15R
$$

COZ086-089-092>099-221100-
...SOUTHEAST COLORADO...

CITY           SKY/WX    TMP DP  RH WIND       PRES   REMARKS
PUEBLO         MOCLDY    70  53  54 N21       30.04R
LA JUNTA       PTCLDY    68  54  60 N8        29.99S
LAMAR          PTCLDY    68  60  75 E7        29.94S
SPRINGFIELD      N/A     63  55  75 S7        30.01S
$$



USA.gov is the U.S. government's official web portal to all federal, state and local government web resources and services.